Location: Treviso
(45.6669°N, 12.2430°E)
Time: 10:01:52
(UTC+01:00)

ISS - Pass Details

Date: 25 March 2023
Orbit: 414 x 423 km, 51.6° (Epoch: 20 March)

Event Time Altitude Azimuth Distance (km) Brightness Sun altitude
Rises 21:06:03 0° 298° (WNW) 2,359 1.4 -26.4°
Reaches altitude 10° 21:08:11 10° 304° (WNW) 1,493 0.0 -26.7°
Enters shadow 21:09:41 23° 314° (NW) 924 -1.4 -27.0°
